DAL75 EHAM-KATL

Flight info

Callsign DAL75
Flight time N/A
Altitude 34000
Route BERGI3N BERGI L60 PENIL M144 BAGSO DCT DOGAL/M081F360 DCT 55N020W 56N030W 56N040W 54N050W DCT NEEKO/N0459F380 N616B TOPPS DCT ENE DCT BAF Q448 PTW J48 MOL DCT FLASK OZZZI2
Aircraft A339/H-VGDW/C

Departure

Time 2026-04-28 19:29
Airport Amsterdam Airport Schiphol (EHAM)

Arrival

Time N/A
Airport Hartsfield Jackson Atlanta International Airport (KATL)
Time Latitude Longitude Altitude Speed Heading
2026-04-28 17:14 52.31211 4.76549 5 ft 0 kts 124°
2026-04-28 19:03 52.31212 4.76547 4 ft 0 kts 124°
2026-04-28 19:04 52.31213 4.76544 3 ft 0 kts 124°
2026-04-28 19:04 52.31215 4.76539 3 ft 1 kts 124°
2026-04-28 19:04 52.31216 4.76537 3 ft 0 kts 124°
2026-04-28 19:04 52.31218 4.76533 4 ft 0 kts 124°
2026-04-28 19:05 52.31220 4.76529 4 ft 1 kts 124°
2026-04-28 19:05 52.31222 4.76522 4 ft 1 kts 124°
2026-04-28 19:05 52.31226 4.76513 4 ft 1 kts 124°
2026-04-28 19:05 52.31231 4.76502 5 ft 1 kts 124°
2026-04-28 19:06 52.31235 4.76491 4 ft 1 kts 123°
2026-04-28 19:06 52.31239 4.76485 5 ft 1 kts 115°
2026-04-28 19:06 52.31245 4.76469 6 ft 1 kts 86°
2026-04-28 19:06 52.31245 4.76455 6 ft 1 kts 64°
2026-04-28 19:07 52.31243 4.76442 6 ft 1 kts 42°
2026-04-28 19:07 52.31239 4.76434 5 ft 2 kts 27°
2026-04-28 19:07 52.31251 4.76441 5 ft 2 kts 21°
2026-04-28 19:07 52.31263 4.76449 6 ft 2 kts 22°
2026-04-28 19:08 52.31275 4.76457 3 ft 2 kts 22°
2026-04-28 19:08 52.31289 4.76454 3 ft 2 kts 355°
2026-04-28 19:08 52.31304 4.76452 3 ft 0 kts 354°
2026-04-28 19:15 52.31305 4.76452 3 ft 0 kts 354°
2026-04-28 19:16 52.31310 4.76450 3 ft 3 kts 350°
2026-04-28 19:16 52.31356 4.76431 3 ft 8 kts 345°
2026-04-28 19:16 52.31410 4.76405 3 ft 8 kts 341°
2026-04-28 19:16 52.31448 4.76348 3 ft 8 kts 301°
2026-04-28 19:17 52.31455 4.76239 3 ft 11 kts 270°
2026-04-28 19:17 52.31451 4.76116 3 ft 11 kts 266°
2026-04-28 19:17 52.31446 4.75988 3 ft 12 kts 266°
2026-04-28 19:17 52.31440 4.75851 3 ft 12 kts 266°
2026-04-28 19:18 52.31434 4.75709 3 ft 13 kts 266°
2026-04-28 19:18 52.31429 4.75563 3 ft 13 kts 269°
2026-04-28 19:18 52.31467 4.75443 3 ft 12 kts 321°
2026-04-28 19:18 52.31507 4.75330 3 ft 13 kts 276°
2026-04-28 19:19 52.31503 4.75131 3 ft 22 kts 267°
2026-04-28 19:19 52.31493 4.74838 3 ft 28 kts 264°
2026-04-28 19:19 52.31479 4.74586 3 ft 12 kts 265°
2026-04-28 19:19 52.31474 4.74449 3 ft 12 kts 266°
2026-04-28 19:20 52.31493 4.74320 3 ft 12 kts 312°
2026-04-28 19:20 52.31564 4.74293 4 ft 10 kts 357°
2026-04-28 19:20 52.31616 4.74294 6 ft 6 kts
2026-04-28 19:20 52.31702 4.74303 5 ft 17 kts
2026-04-28 19:21 52.31824 4.74322 1 ft 18 kts
2026-04-28 19:21 52.31952 4.74332 0 ft 18 kts 358°
2026-04-28 19:21 52.32030 4.74214 0 ft 16 kts 284°
2026-04-28 19:21 52.32037 4.73970 2 ft 24 kts 272°
2026-04-28 19:22 52.32047 4.73716 7 ft 21 kts 274°
2026-04-28 19:22 52.32054 4.73555 7 ft 22 kts 274°
2026-04-28 19:22 52.32157 4.73257 5 ft 24 kts 319°
2026-04-28 19:22 52.32286 4.73079 2 ft 24 kts 320°
2026-04-28 19:23 52.32411 4.72904 3 ft 23 kts 319°
2026-04-28 19:23 52.32530 4.72739 2 ft 22 kts 320°
2026-04-28 19:23 52.32638 4.72578 4 ft 20 kts 317°
2026-04-28 19:23 52.32728 4.72428 5 ft 18 kts 312°
2026-04-28 19:24 52.32810 4.72277 5 ft 17 kts 311°
2026-04-28 19:24 52.32891 4.72128 3 ft 18 kts 311°
2026-04-28 19:24 52.32976 4.71973 3 ft 18 kts 311°
2026-04-28 19:24 52.33031 4.71871 3 ft 6 kts 311°
2026-04-28 19:25 52.33060 4.71817 3 ft 7 kts 311°
2026-04-28 19:25 52.33093 4.71757 4 ft 8 kts 311°
2026-04-28 19:25 52.33138 4.71651 5 ft 14 kts 298°
2026-04-28 19:25 52.33123 4.71485 5 ft 17 kts 235°
2026-04-28 19:26 52.33024 4.71333 3 ft 23 kts 221°
2026-04-28 19:26 52.32941 4.71212 3 ft 9 kts 221°
2026-04-28 19:26 52.32907 4.71163 3 ft 3 kts 221°
2026-04-28 19:26 52.32888 4.71132 2 ft 5 kts 226°
2026-04-28 19:27 52.32883 4.71122 2 ft 1 kts 230°
2026-04-28 19:27 52.32865 4.71054 2 ft 16 kts 253°
2026-04-28 19:27 52.32897 4.70890 2 ft 14 kts 327°
2026-04-28 19:27 52.32928 4.70888 1 ft 1 kts
2026-04-28 19:28 52.32964 4.70889 0 ft 23 kts
2026-04-28 19:28 52.33383 4.70934 2 ft 96 kts
2026-04-28 19:28 52.34264 4.71010 3 ft 154 kts
2026-04-28 19:28 52.35475 4.71099 142 ft 187 kts
2026-04-28 19:29 52.36790 4.71266 662 ft 198 kts
2026-04-28 19:29 52.37726 4.71365 985 ft 209 kts
2026-04-28 19:29 52.39652 4.71439 2079 ft 207 kts
2026-04-28 19:29 52.41113 4.71361 2707 ft 214 kts
2026-04-28 19:30 52.42610 4.71016 3326 ft 220 kts 356°
2026-04-28 19:30 52.44114 4.70348 3896 ft 229 kts 345°
2026-04-28 19:30 52.45565 4.69191 4527 ft 234 kts 333°
2026-04-28 19:30 52.46851 4.67508 5111 ft 243 kts 316°
2026-04-28 19:31 52.47884 4.65275 5711 ft 247 kts 306°
2026-04-28 19:31 52.48748 4.62810 6265 ft 252 kts 303°
2026-04-28 19:31 52.49784 4.60325 6116 ft 281 kts 315°
2026-04-28 19:31 52.51181 4.58058 6290 ft 281 kts 324°
2026-04-28 19:32 52.52807 4.56314 6299 ft 278 kts 336°
2026-04-28 19:32 52.54539 4.54921 6279 ft 278 kts 338°
2026-04-28 19:32 52.56249 4.53457 6293 ft 278 kts 336°
2026-04-28 19:32 52.57958 4.51905 6538 ft 281 kts 335°
2026-04-28 19:33 52.59659 4.50314 7123 ft 280 kts 333°
2026-04-28 19:33 52.61355 4.48708 7635 ft 283 kts 334°
2026-04-28 19:33 52.63073 4.47080 8166 ft 286 kts 334°
2026-04-28 19:33 52.64800 4.45452 8764 ft 286 kts 334°
2026-04-28 19:34 52.66518 4.43827 9281 ft 290 kts 333°
2026-04-28 19:34 52.68268 4.42176 9874 ft 291 kts 333°
2026-04-28 19:34 52.70027 4.40506 10406 ft 293 kts 335°
2026-04-28 19:34 52.71838 4.38788 10614 ft 307 kts 333°
2026-04-28 19:35 52.73689 4.36829 10743 ft 326 kts 323°
2026-04-28 19:35 52.75205 4.33896 10890 ft 348 kts 303°
2026-04-28 19:35 52.75862 4.31445 11077 ft 357 kts 290°
2026-04-28 19:35 52.76840 4.26238 11838 ft 357 kts 290°
2026-04-28 19:36 52.77355 4.23625 12038 ft 362 kts 289°
2026-04-28 19:36 52.78133 4.19723 12789 ft 355 kts 290°
2026-04-28 19:36 52.78921 4.15824 13192 ft 361 kts 292°
2026-04-28 19:36 52.79721 4.11872 13317 ft 363 kts 292°
2026-04-28 19:37 52.80519 4.07917 13333 ft 361 kts 290°
2026-04-28 19:37 52.81042 4.05306 13330 ft 361 kts 290°
2026-04-28 19:37 52.82101 3.99988 13495 ft 372 kts 291°
2026-04-28 19:37 52.82926 3.95878 13843 ft 377 kts 290°
2026-04-28 19:38 52.83741 3.91796 14578 ft 370 kts 291°
2026-04-28 19:38 52.84546 3.87742 15008 ft 373 kts 291°
2026-04-28 19:38 52.85369 3.83588 15230 ft 382 kts 291°
2026-04-28 19:38 52.86180 3.79473 15755 ft 381 kts 290°
2026-04-28 19:39 52.87000 3.75311 16239 ft 381 kts 290°
2026-04-28 19:39 52.87819 3.71138 16703 ft 383 kts 291°
2026-04-28 19:39 52.88651 3.66907 16990 ft 388 kts 290°
2026-04-28 19:39 52.89480 3.62664 17523 ft 388 kts 291°
2026-04-28 19:40 52.90317 3.58374 17896 ft 391 kts 290°
2026-04-28 19:40 52.91151 3.54088 18352 ft 393 kts 291°
2026-04-28 19:40 52.92001 3.49721 18557 ft 400 kts 290°
2026-04-28 19:40 52.92852 3.45337 19008 ft 401 kts 290°
2026-04-28 19:41 52.93706 3.40923 19318 ft 404 kts 291°
2026-04-28 19:41 52.94567 3.36468 19664 ft 407 kts 291°
2026-04-28 19:41 52.95429 3.32001 20087 ft 407 kts 290°
2026-04-28 19:41 52.96297 3.27488 20409 ft 411 kts 290°
2026-04-28 19:42 52.97163 3.22968 20812 ft 412 kts 291°
2026-04-28 19:42 52.98026 3.18468 21150 ft 415 kts 291°
2026-04-28 19:42 52.98903 3.13880 21510 ft 418 kts 291°
2026-04-28 19:42 52.99783 3.09265 21867 ft 421 kts 291°
2026-04-28 19:43 53.00667 3.04616 22231 ft 423 kts 291°
2026-04-28 19:43 53.01558 2.99918 22505 ft 429 kts 291°
2026-04-28 19:43 53.02455 2.95178 22897 ft 431 kts 291°
2026-04-28 19:43 53.03354 2.90414 23259 ft 434 kts 291°
2026-04-28 19:44 53.04256 2.85620 23615 ft 436 kts 291°
2026-04-28 19:44 53.05162 2.80793 23978 ft 439 kts 291°
2026-04-28 19:44 53.06073 2.75928 24292 ft 442 kts 291°
2026-04-28 19:44 53.06984 2.71045 24611 ft 444 kts 291°
2026-04-28 19:45 53.07900 2.66130 24915 ft 446 kts 291°
2026-04-28 19:45 53.08819 2.61180 25228 ft 448 kts 291°
2026-04-28 19:45 53.09740 2.56209 25545 ft 451 kts 291°
2026-04-28 19:45 53.10646 2.51196 25743 ft 457 kts 289°
2026-04-28 19:46 53.11238 2.46037 26037 ft 463 kts 280°
2026-04-28 19:46 53.11648 2.40710 26343 ft 465 kts 281°
2026-04-28 19:46 53.12081 2.35361 26641 ft 467 kts 281°
2026-04-28 19:46 53.12524 2.29990 26937 ft 469 kts 281°
2026-04-28 19:47 53.12967 2.24597 27226 ft 472 kts 281°
2026-04-28 19:47 53.13410 2.19163 27505 ft 474 kts 281°
2026-04-28 19:47 53.13849 2.13716 27807 ft 476 kts 281°
2026-04-28 19:47 53.14287 2.08235 28104 ft 478 kts 281°
2026-04-28 19:48 53.14726 2.02712 28367 ft 481 kts 281°
2026-04-28 19:48 53.15165 1.97158 28559 ft 485 kts 281°
2026-04-28 19:48 53.15602 1.91576 28858 ft 487 kts 281°
2026-04-28 19:48 53.16032 1.86049 29119 ft 489 kts 281°
2026-04-28 19:49 53.16469 1.80412 29377 ft 491 kts 281°
2026-04-28 19:49 53.16904 1.74756 29634 ft 493 kts 281°
2026-04-28 19:49 53.17340 1.69063 29890 ft 495 kts 281°
2026-04-28 19:49 53.17773 1.63357 30153 ft 497 kts 281°
2026-04-28 19:50 53.18639 1.51856 30640 ft 501 kts 281°
2026-04-28 19:50 53.19071 1.46072 30856 ft 504 kts 281°
2026-04-28 19:50 53.19500 1.40269 31117 ft 505 kts 281°
2026-04-28 19:51 53.19922 1.34519 31364 ft 506 kts 281°
2026-04-28 19:51 53.20350 1.28667 31605 ft 508 kts 281°
2026-04-28 19:51 53.20774 1.22809 31854 ft 509 kts 281°
2026-04-28 19:51 53.21197 1.16935 32095 ft 511 kts 281°
2026-04-28 19:52 53.21619 1.11030 32325 ft 512 kts 281°
2026-04-28 19:52 53.22040 1.05106 32570 ft 514 kts 281°
2026-04-28 19:52 53.22458 0.99164 32764 ft 516 kts 281°
2026-04-28 19:52 53.22877 0.93190 32943 ft 518 kts 281°
2026-04-28 19:53 53.23287 0.87285 33134 ft 519 kts 280°
2026-04-28 19:53 53.23705 0.81216 33309 ft 520 kts 280°
2026-04-28 19:53 53.24111 0.75280 33446 ft 521 kts 280°
2026-04-28 19:53 53.24519 0.69265 33596 ft 522 kts 280°
2026-04-28 19:54 53.24926 0.63229 33722 ft 523 kts 280°
2026-04-28 19:54 53.25329 0.57184 33865 ft 523 kts 280°
2026-04-28 19:54 53.25728 0.51144 34031 ft 522 kts 280°
2026-04-28 19:55 53.26523 0.39039 34206 ft 525 kts 281°
2026-04-28 19:55 53.26915 0.32991 34356 ft 524 kts 281°
2026-04-28 19:55 53.27304 0.26928 34409 ft 524 kts 281°
2026-04-28 19:56 53.28072 0.14823 34408 ft 523 kts 280°
2026-04-28 19:56 53.28825 0.02818 34406 ft 523 kts 280°
2026-04-28 19:57 53.29949 -0.09178 34397 ft 520 kts 286°
2026-04-28 19:57 53.31282 -0.21076 34400 ft 521 kts 285°
2026-04-28 19:58 53.32534 -0.33008 34397 ft 521 kts 285°
2026-04-28 19:58 53.33742 -0.44944 34395 ft 521 kts 284°
2026-04-28 19:59 53.34943 -0.56895 34398 ft 521 kts 284°
2026-04-28 19:59 53.36133 -0.68860 34398 ft 521 kts 284°
2026-04-28 20:00 53.37310 -0.80840 34399 ft 521 kts 284°
2026-04-28 20:00 53.38469 -0.92774 34408 ft 521 kts 284°
2026-04-28 20:01 53.39621 -1.04797 34398 ft 521 kts 284°
2026-04-28 20:01 53.40754 -1.16718 34414 ft 521 kts 284°
2026-04-28 20:02 53.41888 -1.28779 34418 ft 521 kts 284°
2026-04-28 20:02 53.42999 -1.40769 34419 ft 521 kts 284°
2026-04-28 20:03 53.44104 -1.52797 34424 ft 522 kts 284°
2026-04-28 20:03 53.45199 -1.64842 34415 ft 523 kts 284°
2026-04-28 20:04 53.46285 -1.76915 34424 ft 524 kts 283°
2026-04-28 20:04 53.47358 -1.89014 34422 ft 525 kts 283°
2026-04-28 20:05 53.48419 -2.01118 34428 ft 525 kts 283°
2026-04-28 20:05 53.49469 -2.13263 34419 ft 525 kts 283°
2026-04-28 20:06 53.50504 -2.25391 34413 ft 525 kts 283°
2026-04-28 20:06 53.51527 -2.37533 34423 ft 525 kts 283°
2026-04-28 20:07 53.52540 -2.49683 34434 ft 525 kts 283°
2026-04-28 20:07 53.53534 -2.61779 34429 ft 524 kts 283°
2026-04-28 20:08 53.54512 -2.73842 34423 ft 521 kts 282°
2026-04-28 20:08 53.55482 -2.85940 34428 ft 521 kts 282°
2026-04-28 20:09 53.56439 -2.98042 34425 ft 521 kts 282°
2026-04-28 20:09 53.57383 -3.10140 34428 ft 521 kts 282°
2026-04-28 20:10 53.58315 -3.22250 34429 ft 522 kts 282°
2026-04-28 20:10 53.59233 -3.34338 34435 ft 523 kts 282°
2026-04-28 20:11 53.60143 -3.46488 34438 ft 524 kts 282°
2026-04-28 20:11 53.61043 -3.58679 34439 ft 524 kts 282°
2026-04-28 20:12 53.61783 -3.70914 34434 ft 526 kts 278°
2026-04-28 20:12 53.62279 -3.83147 34434 ft 526 kts 278°
2026-04-28 20:13 53.62788 -3.95444 34430 ft 526 kts 278°
2026-04-28 20:13 53.63285 -4.07716 34428 ft 526 kts 278°
2026-04-28 20:14 53.63766 -4.20075 34423 ft 524 kts 278°
2026-04-28 20:14 53.64215 -4.32221 34422 ft 522 kts 278°
2026-04-28 20:15 53.64669 -4.44452 34418 ft 522 kts 278°
2026-04-28 20:15 53.65110 -4.56686 34425 ft 522 kts 278°
2026-04-28 20:16 53.65529 -4.68869 34386 ft 518 kts 277°
2026-04-28 20:16 53.65932 -4.80886 34401 ft 516 kts 277°
2026-04-28 20:17 53.66326 -4.92958 34415 ft 515 kts 277°
2026-04-28 20:17 53.66708 -5.05027 34402 ft 515 kts 277°
2026-04-28 20:18 53.67077 -5.17089 34411 ft 515 kts 277°
2026-04-28 20:18 53.67427 -5.29061 34417 ft 513 kts 276°
2026-04-28 20:19 53.67764 -5.41091 34416 ft 512 kts 276°
2026-04-28 20:19 53.68209 -5.53075 34413 ft 509 kts 282°
2026-04-28 20:20 53.69075 -5.64932 34412 ft 509 kts 281°
2026-04-28 20:20 53.69921 -5.76736 34414 ft 509 kts 281°
2026-04-28 20:21 53.70774 -5.88621 34420 ft 510 kts 281°
2026-04-28 20:21 53.71618 -6.00519 34422 ft 510 kts 281°
2026-04-28 20:22 53.72445 -6.12421 34423 ft 510 kts 281°
2026-04-28 20:22 53.73256 -6.24335 34425 ft 511 kts 281°
2026-04-28 20:23 53.74050 -6.36220 34442 ft 509 kts 280°
2026-04-28 20:23 53.74704 -6.46138 34444 ft 509 kts 280°
2026-04-28 20:24 53.75600 -6.59939 34432 ft 508 kts 280°
2026-04-28 20:24 53.76233 -6.69844 34432 ft 508 kts 280°
2026-04-28 20:25 53.76980 -6.81700 34431 ft 508 kts 280°
2026-04-28 20:25 53.77720 -6.93624 34436 ft 508 kts 280°
2026-04-28 20:26 53.78439 -7.05427 34435 ft 507 kts 279°
2026-04-28 20:26 53.79150 -7.17280 34433 ft 503 kts 279°
2026-04-28 20:27 53.79844 -7.29051 34431 ft 504 kts 279°
2026-04-28 20:27 53.80530 -7.40897 34431 ft 500 kts 279°
2026-04-28 20:28 53.81200 -7.52639 34428 ft 502 kts 279°
2026-04-28 20:28 53.81856 -7.64370 34428 ft 501 kts 278°
2026-04-28 20:29 53.82500 -7.76078 34418 ft 501 kts 278°
2026-04-28 20:29 53.83136 -7.87859 34411 ft 501 kts 278°
2026-04-28 20:30 53.83755 -7.99527 34424 ft 499 kts 278°
2026-04-28 20:30 53.84361 -8.11196 34426 ft 499 kts 278°
2026-04-28 20:31 53.84957 -8.22880 34413 ft 498 kts 278°
2026-04-28 20:31 53.85547 -8.34652 34415 ft 498 kts 278°
2026-04-28 20:32 53.86120 -8.46340 34419 ft 497 kts 277°
2026-04-28 20:32 53.86676 -8.57917 34418 ft 496 kts 277°
2026-04-28 20:33 53.87224 -8.69555 34409 ft 495 kts 277°
2026-04-28 20:33 53.87761 -8.81186 34407 ft 495 kts 277°
2026-04-28 20:34 53.88284 -8.92767 34401 ft 495 kts 277°
2026-04-28 20:34 53.88798 -9.04392 34408 ft 493 kts 277°
2026-04-28 20:35 53.89298 -9.15981 34408 ft 493 kts 277°
2026-04-28 20:35 53.89789 -9.27572 34421 ft 491 kts 276°
2026-04-28 20:36 53.90264 -9.39115 34405 ft 490 kts 276°
2026-04-28 20:36 53.90728 -9.50649 34409 ft 489 kts 276°
2026-04-28 20:37 53.91177 -9.62091 34401 ft 485 kts 276°
2026-04-28 20:37 53.91613 -9.73442 34401 ft 486 kts 276°
2026-04-28 20:38 53.92041 -9.84898 34399 ft 486 kts 275°
2026-04-28 20:38 53.92458 -9.96341 34399 ft 486 kts 275°
2026-04-28 20:39 53.92865 -10.07787 34406 ft 485 kts 275°
2026-04-28 20:39 53.93256 -10.19140 34403 ft 484 kts 275°
2026-04-28 20:40 53.93639 -10.30551 34406 ft 484 kts 275°
2026-04-28 20:40 53.94012 -10.41970 34398 ft 484 kts 275°
2026-04-28 20:41 53.94374 -10.53404 34397 ft 484 kts 275°
2026-04-28 20:41 53.94725 -10.64796 34397 ft 481 kts 274°
2026-04-28 20:42 53.95060 -10.76075 34399 ft 482 kts 274°
2026-04-28 20:42 53.95388 -10.87447 34398 ft 482 kts 274°
2026-04-28 20:43 53.95705 -10.98817 34401 ft 482 kts 274°
2026-04-28 20:43 53.96011 -11.10180 34401 ft 482 kts 274°
2026-04-28 20:44 53.96306 -11.21547 34402 ft 482 kts 274°
2026-04-28 20:44 53.96592 -11.32915 34401 ft 481 kts 274°
2026-04-28 20:45 53.96867 -11.44260 34412 ft 480 kts 273°
2026-04-28 20:45 53.97127 -11.55582 34408 ft 479 kts 273°
2026-04-28 20:46 53.97377 -11.66838 34409 ft 479 kts 273°
2026-04-28 20:46 53.97618 -11.78144 34407 ft 479 kts 273°
2026-04-28 20:47 53.97847 -11.89464 34406 ft 478 kts 272°
2026-04-28 20:47 53.98066 -12.00759 34407 ft 478 kts 272°
2026-04-28 20:48 53.98273 -12.11992 34405 ft 478 kts 272°
2026-04-28 20:48 53.98471 -12.23295 34420 ft 478 kts 272°
2026-04-28 20:49 53.98658 -12.34575 34415 ft 477 kts 272°
2026-04-28 20:49 53.98834 -12.45841 34410 ft 477 kts 272°
2026-04-28 20:50 53.99000 -12.57119 34403 ft 477 kts 272°
2026-04-28 20:50 53.99155 -12.68369 34408 ft 476 kts 272°
2026-04-28 20:51 53.99300 -12.79628 34413 ft 476 kts 272°
2026-04-28 20:51 53.99433 -12.90880 34414 ft 475 kts 271°
2026-04-28 20:52 53.99555 -13.02045 34397 ft 476 kts 271°
2026-04-28 20:52 53.99668 -13.13300 34406 ft 475 kts 271°
2026-04-28 20:53 53.99819 -13.30160 34415 ft 475 kts 271°
2026-04-28 20:53 53.99905 -13.41397 34403 ft 474 kts 270°
2026-04-28 20:54 53.99980 -13.52545 34418 ft 473 kts 270°
2026-04-28 20:54 54.00045 -13.63723 34408 ft 472 kts 270°
2026-04-28 20:55 54.00099 -13.74879 34409 ft 472 kts 270°
2026-04-28 20:55 54.00143 -13.86038 34408 ft 468 kts 270°
2026-04-28 20:56 54.00177 -13.97067 34398 ft 468 kts 270°
2026-04-28 20:56 54.00201 -14.08159 34398 ft 468 kts 270°
2026-04-28 20:57 54.00215 -14.19158 34407 ft 468 kts 270°
2026-04-28 20:57 54.00218 -14.30237 34403 ft 469 kts 270°
2026-04-28 20:58 54.00211 -14.41284 34397 ft 465 kts 270°
2026-04-28 20:58 54.00195 -14.52259 34396 ft 468 kts 270°
2026-04-28 20:59 54.00170 -14.63325 34397 ft 465 kts 270°
2026-04-28 20:59 54.00141 -14.74340 34403 ft 468 kts 270°
2026-04-28 21:00 54.00104 -14.85369 34403 ft 466 kts 270°
2026-04-28 21:00 54.00082 -14.90888 34516 ft 466 kts 269°
2026-04-28 21:00 54.00134 -14.96385 34673 ft 465 kts 275°
2026-04-28 21:01 54.00634 -15.01720 34838 ft 464 kts 283°
2026-04-28 21:01 54.01567 -15.06965 34993 ft 463 kts 290°
2026-04-28 21:01 54.03872 -15.17237 35188 ft 464 kts 290°
2026-04-28 21:02 54.05027 -15.22376 35293 ft 465 kts 290°
2026-04-28 21:02 54.06184 -15.27527 35421 ft 465 kts 290°
2026-04-28 21:02 54.07332 -15.32664 35546 ft 465 kts 290°
2026-04-28 21:02 54.08465 -15.37754 35625 ft 465 kts 290°
2026-04-28 21:03 54.09609 -15.42914 35732 ft 465 kts 290°
2026-04-28 21:03 54.10753 -15.48087 35830 ft 466 kts 290°
2026-04-28 21:03 54.11893 -15.53250 35999 ft 464 kts 289°
2026-04-28 21:03 54.13028 -15.58412 36110 ft 465 kts 289°
2026-04-28 21:04 54.15294 -15.68750 36301 ft 464 kts 289°
2026-04-28 21:04 54.17545 -15.79075 36388 ft 464 kts 289°
2026-04-28 21:05 54.19776 -15.89359 36387 ft 464 kts 289°
2026-04-28 21:05 54.22009 -15.99702 36389 ft 464 kts 289°
2026-04-28 21:06 54.24240 -16.10084 36387 ft 464 kts 289°
2026-04-28 21:06 54.26456 -16.20454 36379 ft 464 kts 288°
2026-04-28 21:07 54.28292 -16.29082 36383 ft 464 kts 288°
2026-04-28 21:07 54.30860 -16.41218 36382 ft 464 kts 288°
2026-04-28 21:08 54.33047 -16.51609 36380 ft 464 kts 288°
2026-04-28 21:08 54.35210 -16.61946 36376 ft 464 kts 288°
2026-04-28 21:09 54.37382 -16.72367 36375 ft 464 kts 288°
2026-04-28 21:09 54.39544 -16.82800 36377 ft 464 kts 288°
2026-04-28 21:10 54.41698 -16.93248 36372 ft 464 kts 288°
2026-04-28 21:10 54.43482 -17.01947 36372 ft 464 kts 288°
2026-04-28 21:11 54.45619 -17.12410 36369 ft 464 kts 288°
2026-04-28 21:11 54.47746 -17.22886 36367 ft 464 kts 288°
2026-04-28 21:12 54.49868 -17.33388 36367 ft 464 kts 287°
2026-04-28 21:12 54.51978 -17.43883 36365 ft 464 kts 287°
2026-04-28 21:13 54.54079 -17.54393 36367 ft 464 kts 287°
2026-04-28 21:13 54.56153 -17.64829 36364 ft 463 kts 287°
2026-04-28 21:14 54.58231 -17.75342 36356 ft 463 kts 287°
2026-04-28 21:14 54.60302 -17.85872 36355 ft 463 kts 286°
2026-04-28 21:15 54.62359 -17.96390 36346 ft 462 kts 286°
2026-04-28 21:15 54.64407 -18.06915 36360 ft 462 kts 286°
2026-04-28 21:16 54.66434 -18.17381 36354 ft 462 kts 285°
2026-04-28 21:16 54.68459 -18.27912 36343 ft 461 kts 285°
2026-04-28 21:17 54.70474 -18.38447 36339 ft 461 kts 285°
2026-04-28 21:17 54.72479 -18.48983 36332 ft 461 kts 285°
2026-04-28 21:18 54.74476 -18.59536 36329 ft 461 kts 285°
2026-04-28 21:18 54.76465 -18.70099 36330 ft 461 kts 285°
2026-04-28 21:19 54.78430 -18.80591 36322 ft 461 kts 284°
2026-04-28 21:19 54.80395 -18.91155 36310 ft 460 kts 284°
2026-04-28 21:20 54.82351 -19.01717 36329 ft 460 kts 284°
2026-04-28 21:20 54.84297 -19.12298 36318 ft 460 kts 284°
2026-04-28 21:21 54.86232 -19.22878 36325 ft 459 kts 284°
2026-04-28 21:21 54.88156 -19.33458 36306 ft 459 kts 283°
2026-04-28 21:22 54.90072 -19.44042 36309 ft 459 kts 283°
2026-04-28 21:22 54.91979 -19.54644 36308 ft 459 kts 283°
2026-04-28 21:23 54.93873 -19.65243 36303 ft 459 kts 283°
2026-04-28 21:23 54.95750 -19.75800 36300 ft 459 kts 283°
2026-04-28 21:24 54.97637 -19.86441 36305 ft 459 kts 282°
2026-04-28 21:24 54.99512 -19.97079 36297 ft 458 kts 282°
2026-04-28 21:25 55.01077 -20.07720 36302 ft 456 kts 278°
2026-04-28 21:25 55.02614 -20.18521 36292 ft 456 kts 279°
2026-04-28 21:26 55.04147 -20.29176 36285 ft 455 kts 278°
2026-04-28 21:26 55.05673 -20.39897 36272 ft 455 kts 278°
2026-04-28 21:27 55.07185 -20.50626 36272 ft 455 kts 278°
2026-04-28 21:27 55.08685 -20.61359 36281 ft 454 kts 278°
2026-04-28 21:28 55.10157 -20.72007 36285 ft 451 kts 277°
2026-04-28 21:28 55.11618 -20.82664 36267 ft 451 kts 277°
2026-04-28 21:29 55.13071 -20.93344 36261 ft 451 kts 277°
2026-04-28 21:29 55.14505 -21.03958 36251 ft 451 kts 277°
2026-04-28 21:30 55.15942 -21.14668 36247 ft 451 kts 277°
2026-04-28 21:30 55.17358 -21.25296 36250 ft 451 kts 277°
2026-04-28 21:31 55.18781 -21.36055 36238 ft 451 kts 277°
2026-04-28 21:31 55.20185 -21.46738 36239 ft 452 kts 276°
2026-04-28 21:32 55.21578 -21.57423 36230 ft 448 kts 276°
2026-04-28 21:32 55.22953 -21.68069 36220 ft 449 kts 276°
2026-04-28 21:33 55.24315 -21.78677 36216 ft 449 kts 276°
2026-04-28 21:33 55.25678 -21.89376 36216 ft 449 kts 276°
2026-04-28 21:34 55.27027 -22.00042 36211 ft 449 kts 275°
2026-04-28 21:34 55.28372 -22.10746 36213 ft 449 kts 275°
2026-04-28 21:35 55.29706 -22.21466 36201 ft 449 kts 275°
2026-04-28 21:35 55.31021 -22.32108 36202 ft 448 kts 275°
2026-04-28 21:36 55.32333 -22.42797 36193 ft 446 kts 274°
2026-04-28 21:36 55.33627 -22.53428 36182 ft 446 kts 274°
2026-04-28 21:37 55.34917 -22.64126 36189 ft 446 kts 274°
2026-04-28 21:37 55.36198 -22.74807 36169 ft 445 kts 274°
2026-04-28 21:38 55.37453 -22.85364 36170 ft 444 kts 274°
2026-04-28 21:38 55.38707 -22.96011 36174 ft 444 kts 274°
2026-04-28 21:39 55.39949 -23.06631 36175 ft 444 kts 274°
2026-04-28 21:39 55.41190 -23.17322 36169 ft 444 kts 273°
2026-04-28 21:40 55.42415 -23.27970 36183 ft 445 kts 273°
2026-04-28 21:40 55.43631 -23.38610 36151 ft 442 kts 272°
2026-04-28 21:41 55.44836 -23.49262 36153 ft 442 kts 272°
2026-04-28 21:41 55.46027 -23.59880 36146 ft 442 kts 272°
2026-04-28 21:42 55.47204 -23.70450 36144 ft 442 kts 272°
2026-04-28 21:42 55.48381 -23.81113 36136 ft 442 kts 272°
2026-04-28 21:43 55.49552 -23.91809 36135 ft 442 kts 272°
2026-04-28 21:43 55.50703 -24.02414 36135 ft 442 kts 272°
2026-04-28 21:44 55.51854 -24.13108 36121 ft 443 kts 272°
2026-04-28 21:44 55.52992 -24.23772 36126 ft 443 kts 271°
2026-04-28 21:45 55.54125 -24.34491 36118 ft 443 kts 271°
2026-04-28 21:45 55.55242 -24.45141 36120 ft 442 kts 271°
2026-04-28 21:46 55.56351 -24.55825 36121 ft 442 kts 271°
2026-04-28 21:46 55.57452 -24.66516 36109 ft 442 kts 271°
2026-04-28 21:47 55.58536 -24.77142 36115 ft 441 kts 271°
2026-04-28 21:47 55.59613 -24.87776 36105 ft 439 kts 271°
2026-04-28 21:48 55.60679 -24.98444 36106 ft 439 kts 271°
2026-04-28 21:48 55.61738 -25.09108 36100 ft 438 kts 270°
2026-04-28 21:49 55.62775 -25.19640 36102 ft 437 kts 270°
2026-04-28 21:49 55.63811 -25.30307 36112 ft 438 kts 270°
2026-04-28 21:50 55.64836 -25.40925 36118 ft 439 kts 270°
2026-04-28 21:50 55.65856 -25.51570 36104 ft 437 kts 270°
2026-04-28 21:51 55.66858 -25.62148 36107 ft 437 kts 270°
2026-04-28 21:51 55.67853 -25.72763 36110 ft 437 kts 269°
2026-04-28 21:52 55.68839 -25.83385 36114 ft 436 kts 269°
2026-04-28 21:52 55.69812 -25.93974 36113 ft 436 kts 269°
2026-04-28 21:53 55.70787 -26.04679 36110 ft 438 kts 269°
2026-04-28 21:53 55.71742 -26.15293 36121 ft 441 kts 269°
2026-04-28 21:54 55.72702 -26.26067 36121 ft 443 kts 269°
2026-04-28 21:54 55.73657 -26.36851 36126 ft 442 kts 269°
2026-04-28 21:55 55.74599 -26.47616 36125 ft 442 kts 269°
2026-04-28 21:55 55.75380 -26.56643 36127 ft 442 kts 269°
2026-04-28 21:56 55.76297 -26.67356 36131 ft 442 kts 269°
2026-04-28 21:56 55.77364 -26.79956 36172 ft 442 kts 269°
2026-04-28 21:57 55.78117 -26.88953 36141 ft 442 kts 269°
2026-04-28 21:57 55.79015 -26.99771 36136 ft 441 kts 269°
2026-04-28 21:58 55.79898 -27.10523 36149 ft 441 kts 269°
2026-04-28 21:58 55.80771 -27.21290 36146 ft 440 kts 268°
2026-04-28 21:59 55.81634 -27.32042 36141 ft 440 kts 268°
2026-04-28 22:00 55.82917 -27.48262 36134 ft 440 kts 268°
2026-04-28 22:00 55.83756 -27.59028 36145 ft 440 kts 268°
2026-04-28 22:01 55.84586 -27.69791 36149 ft 440 kts 268°
2026-04-28 22:01 55.85404 -27.80553 36164 ft 442 kts 268°
2026-04-28 22:02 55.86218 -27.91401 36148 ft 442 kts 268°
2026-04-28 22:02 55.87030 -28.02317 36152 ft 442 kts 268°
2026-04-28 22:03 55.87823 -28.13107 36153 ft 442 kts 268°
2026-04-28 22:03 55.88611 -28.24005 36154 ft 443 kts 268°
2026-04-28 22:04 55.89388 -28.34859 36159 ft 444 kts 268°
2026-04-28 22:04 55.90159 -28.45752 36162 ft 444 kts 268°
2026-04-28 22:05 55.90923 -28.56697 36171 ft 444 kts 268°
2026-04-28 22:05 55.91680 -28.67685 36172 ft 444 kts 268°
2026-04-28 22:06 55.92420 -28.78610 36180 ft 445 kts 268°
2026-04-28 22:06 55.93152 -28.89533 36197 ft 445 kts 269°
2026-04-28 22:07 55.93875 -29.00506 36169 ft 446 kts 269°
2026-04-28 22:07 55.94591 -29.11453 36168 ft 446 kts 269°
2026-04-28 22:08 55.95301 -29.22490 36172 ft 446 kts 269°
2026-04-28 22:08 55.95996 -29.33449 36169 ft 446 kts 269°
2026-04-28 22:09 55.96680 -29.44395 36170 ft 445 kts 269°
2026-04-28 22:09 55.97360 -29.55441 36173 ft 445 kts 268°
2026-04-28 22:10 55.98028 -29.66398 36204 ft 446 kts 269°
2026-04-28 22:10 55.98698 -29.77470 36165 ft 448 kts 269°
2026-04-28 22:11 55.99358 -29.88505 36165 ft 448 kts 269°
2026-04-28 22:11 55.99986 -29.99558 36166 ft 447 kts 268°
2026-04-28 22:12 56.00376 -30.10609 36166 ft 446 kts 267°
2026-04-28 22:12 56.00805 -30.21667 36170 ft 447 kts 268°
2026-04-28 22:13 56.01253 -30.32765 36170 ft 447 kts 267°
2026-04-28 22:13 56.01683 -30.43855 36170 ft 447 kts 267°
2026-04-28 22:14 56.02097 -30.54934 36170 ft 446 kts 267°
2026-04-28 22:14 56.02493 -30.65938 36169 ft 447 kts 267°
2026-04-28 22:15 56.02879 -30.77028 36177 ft 447 kts 267°
2026-04-28 22:15 56.03254 -30.88091 36169 ft 446 kts 267°
2026-04-28 22:16 56.03619 -30.99206 36194 ft 446 kts 267°
2026-04-28 22:16 56.03973 -31.10256 36170 ft 446 kts 267°
2026-04-28 22:17 56.04318 -31.21333 36169 ft 446 kts 267°
2026-04-28 22:17 56.04653 -31.32421 36171 ft 446 kts 267°
2026-04-28 22:18 56.04978 -31.43509 36170 ft 446 kts 267°
2026-04-28 22:18 56.05292 -31.54559 36178 ft 446 kts 267°
2026-04-28 22:19 56.05599 -31.65680 36185 ft 446 kts 267°
2026-04-28 22:19 56.05894 -31.76770 36173 ft 446 kts 267°
2026-04-28 22:20 56.06178 -31.87803 36174 ft 446 kts 267°
2026-04-28 22:20 56.06454 -31.98896 36174 ft 446 kts 266°
2026-04-28 22:21 56.06719 -32.09986 36174 ft 445 kts 266°
2026-04-28 22:21 56.06975 -32.21081 36175 ft 445 kts 266°
2026-04-28 22:22 56.07219 -32.32100 36175 ft 445 kts 266°
2026-04-28 22:22 56.07454 -32.43191 36169 ft 446 kts 266°
2026-04-28 22:23 56.07680 -32.54302 36172 ft 446 kts 266°
2026-04-28 22:23 56.07894 -32.65428 36176 ft 447 kts 267°
2026-04-28 22:24 56.08100 -32.76509 36171 ft 447 kts 267°
2026-04-28 22:24 56.08298 -32.87656 36171 ft 448 kts 266°
2026-04-28 22:25 56.08484 -32.98805 36176 ft 448 kts 266°
2026-04-28 22:25 56.08659 -33.09951 36166 ft 448 kts 267°
2026-04-28 22:26 56.08826 -33.21124 36172 ft 449 kts 267°
2026-04-28 22:26 56.08983 -33.32299 36174 ft 449 kts 267°
2026-04-28 22:27 56.09129 -33.43415 36174 ft 449 kts 267°
2026-04-28 22:27 56.09266 -33.54608 36182 ft 450 kts 266°
2026-04-28 22:28 56.09391 -33.65804 36180 ft 450 kts 267°
2026-04-28 22:28 56.09508 -33.77035 36166 ft 450 kts 267°
2026-04-28 22:29 56.09615 -33.88271 36177 ft 450 kts 267°
2026-04-28 22:29 56.09712 -33.99491 36176 ft 450 kts 267°
2026-04-28 22:30 56.09798 -34.10721 36190 ft 450 kts 267°
2026-04-28 22:30 56.09874 -34.21871 36191 ft 450 kts 267°
2026-04-28 22:31 56.09939 -34.33085 36187 ft 450 kts 266°
2026-04-28 22:31 56.09995 -34.44312 36175 ft 450 kts 267°
2026-04-28 22:32 56.10039 -34.55535 36176 ft 450 kts 267°
2026-04-28 22:32 56.10074 -34.66763 36182 ft 451 kts 267°
2026-04-28 22:33 56.10100 -34.77940 36171 ft 451 kts 267°
2026-04-28 22:33 56.10115 -34.89169 36174 ft 451 kts 267°
2026-04-28 22:34 56.10120 -35.00423 36183 ft 450 kts 267°
2026-04-28 22:34 56.10114 -35.11600 36183 ft 450 kts 266°
2026-04-28 22:35 56.10098 -35.22784 36184 ft 450 kts 267°
2026-04-28 22:35 56.10072 -35.34063 36171 ft 451 kts 267°
2026-04-28 22:36 56.10037 -35.45266 36186 ft 451 kts 266°
2026-04-28 22:36 56.09991 -35.56509 36212 ft 450 kts 267°
2026-04-28 22:37 56.09934 -35.67728 36185 ft 451 kts 267°
2026-04-28 22:37 56.09868 -35.78905 36188 ft 451 kts 266°
2026-04-28 22:38 56.09790 -35.90169 36186 ft 450 kts 267°
2026-04-28 22:38 56.09704 -36.01378 36186 ft 450 kts 267°
2026-04-28 22:39 56.09607 -36.12582 36184 ft 450 kts 266°
2026-04-28 22:39 56.09501 -36.23753 36184 ft 450 kts 266°
2026-04-28 22:40 56.09383 -36.34969 36190 ft 450 kts 266°
2026-04-28 22:40 56.09256 -36.46226 36186 ft 450 kts 266°
2026-04-28 22:41 56.09118 -36.57434 36192 ft 450 kts 266°
2026-04-28 22:41 56.08971 -36.68591 36192 ft 450 kts 266°
2026-04-28 22:42 56.08814 -36.79816 36190 ft 450 kts 266°
2026-04-28 22:42 56.08646 -36.91001 36188 ft 450 kts 266°
2026-04-28 22:43 56.08469 -37.02170 36189 ft 450 kts 266°
2026-04-28 22:43 56.08312 -37.11526 36195 ft 450 kts 266°
2026-04-28 22:44 56.08115 -37.22736 36193 ft 450 kts 266°
2026-04-28 22:44 56.07909 -37.33936 36194 ft 450 kts 266°
2026-04-28 22:45 56.07692 -37.45135 36199 ft 450 kts 266°
2026-04-28 22:45 56.07464 -37.56333 36197 ft 450 kts 266°
2026-04-28 22:46 56.07226 -37.67530 36200 ft 449 kts 266°
2026-04-28 22:46 56.06983 -37.78631 36196 ft 449 kts 266°
2026-04-28 22:47 56.06726 -37.89822 36200 ft 449 kts 266°
2026-04-28 22:47 56.06458 -38.00992 36200 ft 449 kts 266°
2026-04-28 22:48 56.06181 -38.12185 36200 ft 449 kts 266°
2026-04-28 22:48 56.05894 -38.23355 36205 ft 449 kts 266°
2026-04-28 22:49 56.05598 -38.34454 36202 ft 449 kts 266°
2026-04-28 22:49 56.05291 -38.45627 36204 ft 449 kts 265°
2026-04-28 22:50 56.04972 -38.56818 36207 ft 450 kts 266°
2026-04-28 22:50 56.04643 -38.68007 36207 ft 450 kts 266°
2026-04-28 22:51 56.04307 -38.79132 36206 ft 450 kts 266°
2026-04-28 22:51 56.03959 -38.90326 36207 ft 450 kts 266°
2026-04-28 22:52 56.03600 -39.01503 36210 ft 450 kts 266°
2026-04-28 22:52 56.03231 -39.12701 36209 ft 450 kts 266°
2026-04-28 22:53 56.02851 -39.23901 36204 ft 450 kts 266°
2026-04-28 22:53 56.02463 -39.35008 36204 ft 450 kts 266°
2026-04-28 22:54 56.02064 -39.46203 36211 ft 450 kts 266°
2026-04-28 22:54 56.01657 -39.57316 36222 ft 451 kts 266°
2026-04-28 22:55 56.01245 -39.68488 36218 ft 450 kts 266°
2026-04-28 22:55 56.00825 -39.79676 36217 ft 450 kts 266°
2026-04-28 22:56 56.00386 -39.90795 36215 ft 450 kts 264°
2026-04-28 22:56 55.99493 -40.01889 36216 ft 450 kts 260°
2026-04-28 22:57 55.98056 -40.12735 36217 ft 450 kts 255°
2026-04-28 22:57 55.96387 -40.23495 36219 ft 450 kts 256°
2026-04-28 22:58 55.94749 -40.34279 36225 ft 450 kts 256°
2026-04-28 22:58 55.93100 -40.45058 36225 ft 450 kts 256°
2026-04-28 22:59 55.91442 -40.55797 36220 ft 450 kts 256°
2026-04-28 22:59 55.89763 -40.66561 36228 ft 450 kts 256°
2026-04-28 23:00 55.88084 -40.77244 36242 ft 450 kts 256°
2026-04-28 23:00 55.86395 -40.87912 36245 ft 449 kts 256°
2026-04-28 23:01 55.84692 -40.98603 36242 ft 449 kts 256°
2026-04-28 23:01 55.82979 -41.09288 36232 ft 449 kts 256°
2026-04-28 23:02 55.81259 -41.19934 36229 ft 448 kts 256°
2026-04-28 23:02 55.79533 -41.30567 36238 ft 448 kts 256°
2026-04-28 23:03 55.77790 -41.41236 36236 ft 448 kts 256°
2026-04-28 23:03 55.76048 -41.51833 36239 ft 448 kts 256°
2026-04-28 23:04 55.74284 -41.62501 36233 ft 448 kts 256°
2026-04-28 23:04 55.71639 -41.78354 36249 ft 448 kts 256°
2026-04-28 23:05 55.69859 -41.88960 36241 ft 448 kts 256°
2026-04-28 23:05 55.68079 -41.99502 36254 ft 448 kts 256°
2026-04-28 23:06 55.66281 -42.10080 36254 ft 448 kts 256°
2026-04-28 23:06 55.64479 -42.20615 36262 ft 448 kts 256°
2026-04-28 23:07 55.62663 -42.31164 36258 ft 447 kts 256°
2026-04-28 23:07 55.60842 -42.41692 36262 ft 446 kts 256°
2026-04-28 23:08 55.59019 -42.52172 36263 ft 446 kts 256°
2026-04-28 23:08 55.57186 -42.62645 36257 ft 446 kts 256°
2026-04-28 23:09 55.55340 -42.73135 36262 ft 446 kts 256°
2026-04-28 23:09 55.53491 -42.83574 36259 ft 446 kts 256°
2026-04-28 23:10 55.51637 -42.93977 36263 ft 445 kts 256°
2026-04-28 23:10 55.49779 -43.04359 36264 ft 446 kts 256°
2026-04-28 23:11 55.47891 -43.14841 36266 ft 446 kts 256°
2026-04-28 23:11 55.46008 -43.25235 36256 ft 446 kts 256°
2026-04-28 23:12 55.44116 -43.35624 36255 ft 446 kts 256°
2026-04-28 23:12 55.42218 -43.45984 36265 ft 446 kts 256°
2026-04-28 23:13 55.40302 -43.56380 36274 ft 446 kts 256°
2026-04-28 23:13 55.38380 -43.66753 36271 ft 446 kts 256°
2026-04-28 23:14 55.36443 -43.77157 36264 ft 446 kts 256°
2026-04-28 23:14 55.34505 -43.87505 36272 ft 446 kts 256°
2026-04-28 23:15 55.32571 -43.97769 36267 ft 445 kts 256°
2026-04-28 23:15 55.30607 -44.08135 36270 ft 445 kts 256°
2026-04-28 23:16 55.28644 -44.18453 36268 ft 446 kts 256°
2026-04-28 23:16 55.26677 -44.28732 36268 ft 446 kts 256°
2026-04-28 23:17 55.24699 -44.39010 36272 ft 446 kts 256°
2026-04-28 23:17 55.22706 -44.49311 36271 ft 446 kts 256°
2026-04-28 23:18 55.20700 -44.59604 36268 ft 445 kts 256°
2026-04-28 23:18 55.18703 -44.69832 36273 ft 446 kts 256°
2026-04-28 23:19 55.16689 -44.80082 36274 ft 446 kts 256°
2026-04-28 23:19 55.14670 -44.90297 36282 ft 446 kts 256°
2026-04-28 23:20 55.12639 -45.00519 36275 ft 445 kts 256°
2026-04-28 23:20 55.10593 -45.10743 36267 ft 444 kts 257°
2026-04-28 23:21 55.08546 -45.20948 36276 ft 444 kts 257°
2026-04-28 23:21 55.06497 -45.31109 36277 ft 444 kts 257°
2026-04-28 23:22 55.04916 -45.38914 36274 ft 444 kts 257°
2026-04-28 23:22 55.02849 -45.49064 36271 ft 444 kts 256°
2026-04-28 23:23 55.00768 -45.59231 36227 ft 444 kts 257°
2026-04-28 23:23 54.98697 -45.69292 36258 ft 444 kts 257°
2026-04-28 23:24 54.96606 -45.79407 36266 ft 444 kts 257°
2026-04-28 23:24 54.94507 -45.89513 36272 ft 444 kts 257°
2026-04-28 23:25 54.92396 -45.99620 36272 ft 444 kts 257°
2026-04-28 23:25 54.90276 -46.09720 36268 ft 444 kts 257°
2026-04-28 23:26 54.88161 -46.19733 36262 ft 444 kts 257°
2026-04-28 23:26 54.86030 -46.29791 36273 ft 443 kts 257°
2026-04-28 23:27 54.83889 -46.39843 36273 ft 443 kts 257°
2026-04-28 23:27 54.81742 -46.49874 36266 ft 443 kts 257°
2026-04-28 23:28 54.79584 -46.59907 36266 ft 443 kts 257°
2026-04-28 23:28 54.77419 -46.69915 36260 ft 443 kts 257°
2026-04-28 23:29 54.75248 -46.79910 36260 ft 444 kts 257°
2026-04-28 23:29 54.73079 -46.89849 36265 ft 444 kts 257°
2026-04-28 23:30 54.70888 -46.99838 36267 ft 444 kts 257°
2026-04-28 23:30 54.68687 -47.09821 36263 ft 444 kts 257°
2026-04-28 23:31 54.66474 -47.19811 36217 ft 445 kts 257°
2026-04-28 23:31 54.64630 -47.28101 36245 ft 445 kts 257°
2026-04-28 23:32 54.62399 -47.38090 36250 ft 446 kts 257°
2026-04-28 23:32 54.60156 -47.48081 36259 ft 446 kts 257°
2026-04-28 23:33 54.57918 -47.58000 36249 ft 444 kts 257°
2026-04-28 23:33 54.55667 -47.67929 36252 ft 444 kts 257°
2026-04-28 23:34 54.53411 -47.77845 36248 ft 446 kts 256°
2026-04-28 23:34 54.51139 -47.87778 36251 ft 445 kts 256°
2026-04-28 23:35 54.48871 -47.97642 36249 ft 446 kts 256°
2026-04-28 23:35 54.46585 -48.07543 36248 ft 446 kts 256°
2026-04-28 23:36 54.44285 -48.17460 36251 ft 446 kts 256°
2026-04-28 23:36 54.41980 -48.27353 36243 ft 446 kts 256°
2026-04-28 23:37 54.39668 -48.37232 36242 ft 447 kts 256°
2026-04-28 23:37 54.37339 -48.47136 36245 ft 447 kts 256°
2026-04-28 23:38 54.35000 -48.57031 36244 ft 447 kts 255°
2026-04-28 23:38 54.32668 -48.66854 36246 ft 448 kts 255°
2026-04-28 23:39 54.30308 -48.76748 36247 ft 448 kts 255°
2026-04-28 23:39 54.27945 -48.86614 36247 ft 448 kts 255°
2026-04-28 23:40 54.25572 -48.96472 36243 ft 448 kts 255°
2026-04-28 23:40 54.23189 -49.06328 36243 ft 448 kts 255°
2026-04-28 23:41 54.20818 -49.16092 36244 ft 448 kts 255°
2026-04-28 23:41 54.18416 -49.25937 36201 ft 448 kts 255°
2026-04-28 23:42 54.16002 -49.35791 36227 ft 448 kts 255°
2026-04-28 23:42 54.13603 -49.45539 36236 ft 449 kts 255°
2026-04-28 23:43 54.11174 -49.55363 36239 ft 449 kts 255°
2026-04-28 23:43 54.08735 -49.65196 36240 ft 450 kts 255°
2026-04-28 23:44 54.06294 -49.75018 36241 ft 450 kts 254°
2026-04-28 23:44 54.03845 -49.84828 36233 ft 450 kts 254°
2026-04-28 23:45 54.01400 -49.94584 36244 ft 451 kts 254°
2026-04-28 23:45 53.98910 -50.04389 36243 ft 451 kts 253°
2026-04-28 23:46 53.96505 -50.14214 36241 ft 449 kts 255°
2026-04-28 23:46 53.94179 -50.23975 36240 ft 449 kts 255°
2026-04-28 23:47 53.91811 -50.33782 36232 ft 449 kts 255°
2026-04-28 23:47 53.89417 -50.43587 36233 ft 450 kts 255°
2026-04-28 23:48 53.87010 -50.53380 36238 ft 450 kts 254°
2026-04-28 23:48 53.84593 -50.63166 36239 ft 450 kts 254°
2026-04-28 23:49 53.82166 -50.72951 36240 ft 450 kts 254°
2026-04-28 23:49 53.79733 -50.82718 36216 ft 450 kts 254°
2026-04-28 23:50 53.77303 -50.92429 36242 ft 451 kts 254°
2026-04-28 23:50 53.74849 -51.02191 36236 ft 451 kts 254°
2026-04-28 23:51 53.72383 -51.11959 36243 ft 452 kts 254°
2026-04-28 23:51 53.69907 -51.21725 36242 ft 452 kts 254°
2026-04-28 23:52 53.67433 -51.31438 36235 ft 448 kts 253°
2026-04-28 23:52 53.64973 -51.41061 36238 ft 449 kts 253°
2026-04-28 23:53 53.62488 -51.50733 36243 ft 449 kts 253°
2026-04-28 23:53 53.59997 -51.60390 36246 ft 449 kts 253°
2026-04-28 23:54 53.57496 -51.70042 36250 ft 449 kts 253°
2026-04-28 23:54 53.55004 -51.79621 36231 ft 449 kts 253°
2026-04-28 23:55 53.52489 -51.89249 36243 ft 449 kts 253°
2026-04-28 23:55 53.49961 -51.98880 36245 ft 450 kts 253°
2026-04-28 23:56 53.47441 -52.08442 36254 ft 450 kts 253°
2026-04-28 23:56 53.44899 -52.18047 36252 ft 451 kts 252°
2026-04-28 23:57 53.42344 -52.27661 36237 ft 451 kts 252°
2026-04-28 23:57 53.39781 -52.37267 36257 ft 451 kts 252°
2026-04-28 23:58 53.37218 -52.46820 36256 ft 446 kts 252°
2026-04-28 23:58 53.34662 -52.56321 36260 ft 448 kts 252°
2026-04-28 23:59 53.32099 -52.65810 36265 ft 448 kts 252°
2026-04-28 23:59 53.29541 -52.75233 36227 ft 448 kts 252°
2026-04-29 00:00 53.26956 -52.84726 36267 ft 449 kts 252°
2026-04-29 00:00 53.24358 -52.94217 36272 ft 449 kts 252°
2026-04-29 00:01 53.21753 -53.03700 36271 ft 449 kts 251°
2026-04-29 00:01 53.19141 -53.13167 36269 ft 449 kts 251°
2026-04-29 00:02 53.16518 -53.22636 36267 ft 449 kts 251°
2026-04-29 00:02 53.14333 -53.30495 36265 ft 449 kts 251°